Miscellaneous Local Product
Issued by NWS Hastings, NE

Home | Current Version | Previous Version | Text Only | Print | Product List | Glossary Off
Versions: 1 2 3 4 5 6 7 8 9 10 11 12 13 14 15 16 17 18 19 20 21 22 23 24 25 26 27 28 29 30 31 32 33 34 35 36 37 38 39 40 41 42 43 44 45 46 47 48 49 50

000
AXUS43 KGID 210102
MISGRI

GID CWA HOURLY WEATHER ROUNDUP
NATIONAL WEATHER SERVICE HASTINGS NE
800 PM CDT WED AUG 20 2014

NOTE: "FAIR" INDICATES FEW OR NO CLOUDS BELOW 12,000 FEET WITH NO
SIGNIFICANT WEATHER AND/OR OBSTRUCTIONS TO VISIBILITY.

...SOUTH CENTRAL NEBRASKA...

CITY           SKY/WX    TMP DP  RH WIND       PRES   REMARKS
GRAND ISLAND   CLEAR     85  72  65 SE13      29.74F HX  91
HASTINGS       CLEAR     87  67  51 S13       29.74S HX  90
KEARNEY        CLEAR     82  72  69 SE9       29.73F
ORD            PTCLDY    86  71  60 SE14      29.71S HX  91
YORK           PTCLDY    86 N/A N/A S9        29.75F
AURORA         CLEAR     84  73  69 SE8       29.75R HX  91
LEXINGTON      CLEAR     86  71  59 SE8       29.73S HX  91
HOLDREGE       PTCLDY    85  67  53 SE9       29.72F
HEBRON         MOCLDY    85  67  54 S7        29.75R

...NEBRASKA PANHANDLE...

CITY           SKY/WX    TMP DP  RH WIND       PRES   REMARKS
CHADRON        CLEAR     88  48  25 W9        29.75R
ALLIANCE       PTCLDY    89  44  20 W12       29.80S
SCOTTSBLUFF    PTCLDY    86  53  32 W7        29.82R
SIDNEY         CLOUDY    81  55  40 E6        29.89R

...WESTERN AND NORTH CENTRAL NEBRASKA...

CITY           SKY/WX    TMP DP  RH WIND       PRES   REMARKS
VALENTINE      CLEAR     86  64  47 S14       29.71R
AINSWORTH      CLEAR     82  68  62 S6        29.74S
ONEILL         CLEAR     85  74  70 S9        29.73R HX  93
BROKEN BOW     CLEAR     84  71  65 SE8       29.73S
IMPERIAL       MOCLDY    85  61  44 NW6       29.79S
NORTH PLATTE   CLEAR     84  67  56 CALM      29.74R
MCCOOK         CLOUDY    87  61  41 SW15G22   29.75R

...EASTERN NEBRASKA...

CITY           SKY/WX    TMP DP  RH WIND       PRES   REMARKS
NORFOLK        CLEAR     85  70  60 SE10      29.75S
SO SIOUX CITY  MOCLDY    81  76  84 SE7       29.75S
TEKAMAH        PTCLDY    85  74  69 SE15      29.75S HX  92
COLUMBUS       PTCLDY    82  72  69 SE8       29.76S
ALBION         CLEAR     83  72  67 SE6       29.74S
OMAHA EPPLEY   PTCLDY    86  73  65 SE18      29.76F HX  93
OFFUTT AFB     CLEAR     84  77  81 SE13      29.77S HX  94
MILLARD        CLEAR     86  74  68 SE12      29.76S HX  94
LINCOLN        MOCLDY    90  69  50 S13       29.75F HX  94
NEBRASKA CITY  CLEAR     82  73  74 SE8       29.79S
BEATRICE       MOCLDY    89  70  54 S7        29.76S HX  94
FALLS CITY     CLEAR     84  76  76 SE9       29.78S HX  93

...NORTHERN KANSAS...

CITY           SKY/WX    TMP DP  RH WIND       PRES   REMARKS
GOODLAND       MOCLDY    82  63  52 NE9       29.79S
HILL CITY      CLOUDY    93  63  36 S14       29.71S HX  94
NORTON         CLEAR     88  57  35 SE6       29.71S
PHILLIPSBURG   CLEAR     91  63  38 SE10      29.71S HX  92
SMITH CENTER   CLEAR     90  64  43 SE14      29.72F HX  91
BELOIT         CLEAR     88  66  48 SE9       29.72S HX  90
HAYS           MOCLDY    93  63  36 S20G25    29.74S HX  94
RUSSELL        PTCLDY    91  63  39 S15       29.73S HX  92
CONCORDIA      MOCLDY    87  69  54 S12       29.75S HX  91
SALINA         PTCLDY    90  68  48 S15       29.76S HX  94
TOPEKA         CLEAR     91  71  51 S12       29.80S HX  97



USA.gov is the U.S. government's official web portal to all federal, state and local government web resources and services.